Regional Weather Roundup
Issued by NWS

Home | Current Version | Previous Version | Graphics & Text | Print | Product List | Glossary On
Versions: 1 2 3 4 5 6 7 8 9 10 11 12 13 14 15 16 17 18 19 20 21 22 23 24 25 26 27 28 29 30 31 32 33 34 35 36 37 38 39 40 41 42 43 44 45 46 47 48 49 50
471
ASUS44 KMEG 290510
RWRTN
TENNESSEE HOURLY STATE WEATHER ROUNDUP
NATIONAL WEATHER SERVICE MEMPHIS TN
1200 AM CDT THU JUN 29 2017

TNZ002-004-019-021-049-052-054-088>092-290600-
WEST TENNESSEE

CITY           SKY/WX    TMP DP  RH WIND       PRES   REMARKS
MEMPHIS INTL   CLEAR     77  67  71 S6        29.98R
NWS MEMPHIS      N/A     76 N/A N/A MISG        N/A
JACKSON        CLEAR     71  67  87 CALM      30.00S
SOMERVILLE     CLEAR     73  66  78 S6        29.98S
COVINGTON      CLEAR     75  66  73 CALM      29.98F
UNION CITY     CLEAR     72  66  83 SE6       29.98S
BOLIVAR        CLEAR     72  66  83 SE7       30.00R
HUNTINGDON     CLEAR     72  66  83 CALM      30.00S
LEXINGTON      CLEAR     68  66  94 CALM      30.01S
SELMER         CLEAR     75  64  69 S6        30.03R
SAVANNAH       PTCLDY    75  66  73 S8        30.02R
$$

TNZ008-025-027-028-033-062-065-066-290600-
NORTH MIDDLE TENNESSEE

CITY           SKY/WX    TMP DP  RH WIND       PRES   REMARKS
NASHVILLE      CLEAR     73  61  65 CALM      30.05R
PORTLAND       CLEAR     68  61  77 CALM      30.05S
CLARKSVILLE    CLEAR     70  62  76 S3        30.03R
SMYRNA         CLEAR     69  63  81 CALM      30.06R
COOKEVILLE       N/A     64  61  88 S5        30.09R
GALLATIN       PTCLDY    68  63  83 CALM      30.08R
CROSSVILLE     CLEAR     65  57  75 S3        30.15S
$$

TNZ061-075-076-078-094-096-097-290600-
SOUTH MIDDLE TENNESSEE

CITY           SKY/WX    TMP DP  RH WIND       PRES   REMARKS
FAYETTEVILLE   CLEAR     72  63  73 S6        30.08R
TULLAHOMA      CLEAR     72  61  68 SE6       30.10S
WINCHESTER     CLEAR     73  63  68 SE6       30.10S
MCMINNVILLE    CLEAR     73  63  68 CALM      30.10S
COLUMBIA       CLEAR     72  63  73 CALM      30.03R
SHELBYVILLE    CLEAR     72  63  73 SE6       30.06S
$$

TNZ017-018-042-046-047-290600-
NORTHEAST TENNESSEE

CITY           SKY/WX    TMP DP  RH WIND       PRES   REMARKS
TRI CITIES     PTCLDY    63  57  81 CALM      30.17R
ELIZABETHTON   PTCLDY    63  57  82 CALM      30.18S
$$

TNZ012-013-036-069-073-074-290600-
CENTRAL EAST TENNESSEE

CITY           SKY/WX    TMP DP  RH WIND       PRES   REMARKS
KNOXVILLE      CLEAR     72  58  61 E3        30.12R
OAK RIDGE      CLEAR     65  57  75 CALM      30.14R
DOWNTOWN KNOXV   N/A     64  63  94 CALM      30.12R
GATLINBURG     CLEAR     64  55  72 CALM      30.12S
MORRISTOWN     CLEAR     72  61  68 CALM      30.14R
JACKSBORO        N/A     63  59  88 NE3       30.16S
$$

TNZ083-085-099-290600-
SOUTHEAST TENNESSEE

CITY           SKY/WX    TMP DP  RH WIND       PRES   REMARKS
CHATTANOOGA    CLEAR     77  63  61 VRB7      30.11R
DAYTON         CLOUDY    66  64  94 CALM      30.11R
$$

SKY/WX REPORTED AS FAIR MEANS FEW OR NO CLOUDS BELOW
12 THOUSAND FEET.





USA.gov is the U.S. government's official web portal to all federal, state and local government web resources and services.